Regional Weather Roundup
Issued by NWS

Home | Current Version | Previous Version | Graphics & Text | Print | Product List | Glossary On
Versions: 1 2 3 4 5 6 7 8 9 10 11 12 13 14 15 16 17 18 19 20 21 22 23 24 25 26 27 28 29 30 31 32 33 34 35 36 37 38 39 40 41 42 43 44 45 46 47 48 49 50
000
ASUS45 KBOU 242307
RWRCO

WEATHER ROUNDUP FOR COLORADO
NATIONAL WEATHER SERVICE DENVER/BOULDER CO
500 PM MDT FRI APR 24 2015

NOTE: "FAIR" INDICATES FEW OR NO CLOUDS BELOW 12000 FEET WITH NO
SIGNIFICANT WEATHER AND/OR OBSTRUCTIONS TO VISIBILITY.

COZ001>005-013-030-031-250000-
...NORTHWEST COLORADO...

CITY           SKY/WX    TMP DP  RH WIND       PRES   REMARKS
CRAIG          PTSUNNY   59  30  33 SW20      29.72F
HAYDEN         PTSUNNY   54  27  35 SW9       29.74F
MEEKER         PTSUNNY   59  28  30 S17G23    29.74F
MOUNT WERNER   NOT AVBL
STEAMBOAT SPGS CLOUDY    48  30  49 W9G17     29.77R
WALDEN         CLOUDY    46  27  46 W24G33    29.77R
$$

COZ006>008-011-250000-
...WEST CENTRAL VALLEYS...

CITY           SKY/WX    TMP DP  RH WIND       PRES   REMARKS
GRAND JUNCTION CLOUDY    63  26  24 E8G18     29.70S
MONTROSE       CLOUDY    57  25  29 SE9       29.80F
EAGLE          CLOUDY    48  34  57 SW18      29.85R
RIFLE          CLOUDY    54  34  46 E13       29.78F
DELTA          CLOUDY    62  26  24 S12G20    29.75R
NUCLA          CLOUDY    57  27  30 E8G22     29.82F
$$

COZ017>023-064>068-250000-
...SOUTHWEST COLORADO...

CITY           SKY/WX    TMP DP  RH WIND       PRES   REMARKS
DURANGO        CLOUDY    53  28  38 VRB6      29.85F
CORTEZ         LGT RAIN  55  28  35 N10       29.83R
PAGOSA SPRINGS CLOUDY    46  29  51 E5        29.90S
TELLURIDE      CLOUDY    36  30  79 E8        29.95F
WOLF CREEK PAS NOT AVBL
$$

COZ009-010-012-014-032>034-037-058>063-250000-
...CENTRAL COLORADO...

CITY           SKY/WX    TMP DP  RH WIND       PRES   REMARKS
ASPEN          CLOUDY    40  33  76 VRB3      29.87R
BUENA VISTA    CLOUDY    48  23  36 W15G22    29.79S
COPPER MTN     CLOUDY    30  21  69 W14G21    29.92F WCI  20
BERTHOUD PASS  PTSUNNY   27  18  69 W26G33    29.91R WCI  11
COTTONWOOD PAS LGT SNOW  37  27  65 W26G39    29.85R
GUNNISON       CLOUDY    45  27  49 NE13      29.87F
KREMMLING      CLOUDY    46  30  53 W14G21    29.78F
LEADVILLE      CLOUDY    38  16  40 SW12      29.84F
MONARCH PASS   SNOW      25  23  93 MISG      30.02S VSB<1/4
SALIDA         CLOUDY    51  27  39 SW13G30   29.86R
SUNLIGHT       CLOUDY    32  28  86 CALM      29.95S
WILKERSON PASS CLOUDY    32  21  64 MISG      29.91R
$$

COZ069>075-250000-
...SAN LUIS VALLEY/SANGRE DE CRISTO MOUNTAINS...

CITY           SKY/WX    TMP DP  RH WIND       PRES   REMARKS
ALAMOSA        CLOUDY    49  23  36 SE3       29.81F
LA VETA PASS   CLOUDY    36  23  60 SW9       29.85S
SAGUACHE       CLOUDY    46  23  39 NW24G30   29.83S
$$

COZ035-036-038>040-250000-
...NORTHERN COLORADO FRONT RANGE...

CITY           SKY/WX    TMP DP  RH WIND       PRES   REMARKS
DENVER INTL AP CLOUDY    57  33  40 W26G35    29.64F
DMNS CITY PARK   N/A     55  31  40 SW8G18    29.65F
AURORA         PTSUNNY   55  32  41 W21G29    29.67R
FRONT RANGE AP PTSUNNY   61  32  33 MISG      29.65S
ERIE MUNI ARPT CLOUDY    59  31  34 SW14      29.65F
BOULDER MUN AP CLOUDY    59  32  36 S9G16     29.66S
CENTENNIAL     CLOUDY    53  32  44 W14G26    29.68R
BROOMFIELD     CLOUDY    54  32  43 SW14      29.68S
FORT COLLINS   CLOUDY    55  30  38 SE16G40   29.65F
LONGMONT       CLOUDY    60  34  37 CALM      29.68S
$$

COZ041-046-047-076>085-087-088-250000-
...PIKES PEAK/PALMER DIVIDE AND SOUTHERN FOOTHILLS...

CITY           SKY/WX    TMP DP  RH WIND       PRES   REMARKS
COLO. SPRINGS  CLOUDY    58  28  32 W12       29.68S
A. F. ACADEMY  NOT AVBL
ELLICOTT         N/A    N/A N/A N/A E7        29.67S
FALCON         CLOUDY    57  25  30 W12       29.71R
FORT CARSON    CLOUDY    58  27  30 SW6       29.65F
LIMON          CLOUDY    58  33  39 E3        29.62F
MONUMENT HILL  CLOUDY    52  30  43 NW24G33   29.71R
TRINIDAD       CLOUDY    59  23  25 W25G36    29.67R
$$

COZ042>045-048>051-090-091-250000-
...NORTHEAST COLORADO...

CITY           SKY/WX    TMP DP  RH WIND       PRES   REMARKS
GREELEY ARPT   CLOUDY    63  32  31 N14       29.65R
AKRON          CLOUDY    57  42  57 SW3       29.61S
BURLINGTON     LGT RAIN  59  38  45 N15G21    29.59R
WRAY           PTSUNNY   68  42  40 E9        29.53S
STERLING       PTSUNNY   64  34  32 NW14      29.57S
HOLYOKE        HVY RAIN  59  43  55 NW12G33   29.60R
FORT MORGAN    PTSUNNY   62  31  31 NW24G31   29.63R
$$

COZ086-089-092>099-250000-
...SOUTHEAST COLORADO...

CITY           SKY/WX    TMP DP  RH WIND       PRES   REMARKS
PUEBLO         LGT RAIN  60  34  37 NE9G30    29.64R
LA JUNTA       PTSUNNY   72  29  20 NW17      29.54R
LAMAR          MOSUNNY   73  29  19 CALM      29.47F
SPRINGFIELD      N/A     61  42  49 S9        29.55F
$$



USA.gov is the U.S. government's official web portal to all federal, state and local government web resources and services.